Skip Page Navigation
NASA JPL Caltech
NASA Logo - Jet Propulsion Laboratory + View the NASA Portal
+ Near-Earth Object (NEO) Program
Search JPL
JPL Home Earth Solar System Stars & Galaxies Technology
JPL Solar System Dynamics
BODIES ORBITS EPHEMERIDES TOOLS PHYSICAL DATA DISCOVERY FAQ SITE MAP
JPL Small-Body Database Browser
Search: [ help ]  
1570 Brunonia (1948 TX)
Classification: Main-belt Asteroid          SPK-ID: 2001570
Ephemeris | Orbit Diagram | Orbital Elements | Physical Parameters | Discovery Circumstances ]

[ hide orbit diagram ]
Orbit Diagram
Note: Make sure you have Java enabled on your browser to see the applet. This applet is provided as a 3D orbit visualization tool. The applet was implemented using 2-body methods, and hence should not be used for determining accurate long-term trajectories (over several years or decades) or planetary encounter circumstances. For accurate long-term ephemerides, please instead use our Horizons system.
Orbit Viewer

Additional Notes: the orbits shown in the applet are color coded. The planets are white lines, and the asteroid/comet is a blue line. The bright white line indicates the portion of the orbit that is above the ecliptic plane, and the darker portion is below the ecliptic plane. Likewise for the asteroid/comet orbit, the light blue indicates the portion above the ecliptic plane, and the dark blue the portion below the ecliptic plane.

Orbit Viewer applet originally written and kindly provided by Osamu Ajiki (AstroArts), and further modified by Ron Baalke (JPL).


Orbital Elements at Epoch 2456400.5 (2013-Apr-18.0) TDB
Reference: JPL 1 (heliocentric ecliptic J2000)
 Element Value Uncertainty (1-sigma)   Units 
e .05693004344557129 5.6108e-08  
a 2.843238589782555 1.4195e-08 AU
q 2.681372893340109 1.5856e-07 AU
i 1.666022904878404 6.2599e-06 deg
node 190.1243596704069 0.00017548 deg
peri 223.5551685607406 0.00018406 deg
M 133.7007356912617 5.3267e-05 deg
tp 2455750.146202463347
(2011-Jul-07.64620246)
0.0002581 JED
period 1751.129983711054
4.79
1.3114e-05
3.59e-08
d
yr
n .2055815406901296 1.5396e-09 deg/d
Q 3.005104286225 1.5003e-08 AU
  Orbit Determination Parameters
   # obs. used (total)      1530  
   data-arc span      23569 days (64.53 yr)  
   first obs. used      1948-10-09  
   last obs. used      2013-04-20  
   planetary ephem.      DE405  
   SB-pert. ephem.      SB405-CPV-2  
   condition code      0  
   fit RMS      .526  
   data source      ORB  
   producer      Otto Matic  
   solution date      2013-Apr-29 12:45:39  

Additional Information
 Earth MOID = 1.69183 AU 
 T_jup = 3.305 
[ show covariance matrix ]

Ephemeris | Orbit Diagram | Orbital Elements | Physical Parameters | Discovery Circumstances ]

Physical Parameter Table
Parameter Symbol Value Units Sigma Reference Notes
absolute magnitude H 12.4 mag n/a PDS3 (MPC 17262)  

1570 Brunonia (1948 TX)          Discovered 1948-Oct-09 by Arend, S. at Uccle (012)
Reference: DISCOVERY.DBLast Updated: 2003-08-29

Alternate Designations
 1948 TX = 1952 QE1 
Ephemeris | Orbit Diagram | Orbital Elements | Physical Parameters | Discovery Circumstances ]
ABOUT SSD CREDITS/AWARDS PRIVACY/COPYRIGHT GLOSSARY LINKS
FirstGov 2013-May-18 23:24 UT
(server date/time)  
NASA Home Page
Site Manager:   Donald K. Yeomans
Webmaster  Alan B. Chamberlin